Погода в Ормаре

Пакистан     25°15′32″N   64°38′05″E
темп.,
°C
ветер,
м/с
пор.,
м/с
влажн.,
%
обл.,
%
осадки,
мм/ч
давл.,
гПа
погр.,
м
16 мая, вс
вс1623:00+29з69780 0.0 1003190
02:00+29з34750 0.0 100261
05:00+28юз22790 0.0 100235
08:00+28з22770 0.0 100590
11:00+31зюз32630 0.0 1004148
14:00+29ююз55705 0.0 1003202
17:00+29ююз66734 0.0 1001171
20:00+29з467472 0.0 1002119
17 мая, пн
пн1723:00+30зсз686559 0.0 100397
02:00+30з33649 0.0 100220
05:00+30зсз346147 0.0 100225
08:00+33с33410 0.0 100334
11:00+34ю44393 0.0 1004543
14:00+31ю56550 0.0 1002121
17:00+31зюз45592 0.0 1000101
20:00+32зсз685569 0.0 100178
18 мая, вт
вт1823:00+30юв9127141 0.0 1003187
02:00+29ю237898 0.0 100147
05:00+29в457624 0.0 100273
08:00+30вюв33635 0.0 100468
11:00+29ююв44643 0.0 1004241
14:00+30ю89655 0.0 1001198
17:00+30ююз57705 0.0 1000229
20:00+29юз457811 0.0 1002146
19 мая, ср
ср1923:00+29юз3380100 0.0 100499
02:00+28з238199 0.0 100279
05:00+28зсз3379100 0.0 100291
08:00+28зсз347495 0.0 1003162
11:00+29юз5470100 0.0 1003295
14:00+28юз997693 0.0 1000227
17:00+29зюз71078100 0.0 999295
20:00+29зюз4780100 0.0 1000190
20 мая, чт
чт2023:00+29зсз610785 0.0 1002220
02:00+28зюз71081100 0.0 1000177
05:00+28ююз458342 0.0 1001152
08:00+28юз56860 0.0 1003347
11:00+28юз66851 0.0 1004419
14:00+28юз67871 0.0 1002393
17:00+29юз68872 0.0 1001415
20:00+28зюз58910 0.0 1001347